49P/Arend-Rigaux (2025)

Japanese version
Home page
Updated on May 13, 2023

---------------------------------------------------------------------

* Profile

* Orbital Elements

Epoch 2023 Feb. 25.0 TT = JDT 2460000.5                                         
T 2025 Apr. 10.84574 TT                                 Rudenko                 
q   1.4327520            (2000.0)            P               Q                  
n   0.14615466     Peri.  332.92098     -0.05173945     -0.95680708             
a   3.5693922      Node   118.79155     +0.96516277     -0.12148077             
e   0.5986006      Incl.   19.05269     +0.25648366     +0.26412616             
P   6.74                                                                        
>From 3406 observations 2004 June 24-2023 May 2, mean residual 0".6.             
     Nongravitational parameters A1 = -0.04, A2 = -0.0003.                      

* Finding Charts

* Magnitudes Graph

        H = 13.5  G = 0.15                       [    ,-102]  (             - 2024 Dec. 29)
        m1 = 8.0 + 5 log d + 30.0 log r(t - 10)  [-102, 109]  (2024 Dec. 29 - 2025 July 28)
        H = 13.5  G = 0.15                       [ 109,    ]  (2025 July 28 -             )

---------------------------------------------------------------------

The orbital elements are published on M.P.E.C. 2023-J95.
The charts are made with StellaNavigator Ver.10 (AstroArts).
The magnitudes graphs are made with Comet for Windows.

---------------------------------------------------------------------

Copyright(C) Seiichi Yoshida (comet@aerith.net). All rights reserved.